Regional Weather Roundup
Issued by NWS

Home | Current Version | Previous Version | Graphics & Text | Print | Product List | Glossary On
Versions: 1 2 3 4 5 6 7 8 9 10 11 12 13 14 15 16 17 18 19 20 21 22 23 24 25 26 27 28 29 30 31 32 33 34 35 36 37 38 39 40 41 42 43 44 45 46 47 48 49 50
000
ASUS45 KSLC 281510
RWRUT

UTAH REGIONAL WEATHER ROUNDUP
NATIONAL WEATHER SERVICE SALT LAKE CITY UT
900 AM MDT TUE JUL 28 2015

UTZ001>011-023>025-281600-

NORTHERN UTAH

CITY           SKY/WX    TMP DP  RH WIND       PRES   REMARKS
BRIGHAM CITY   SUNNY     56  37  48 N3        30.29R
HILL AFB       SUNNY     58  35  41 E10       30.29R
LOGAN            N/A    N/A N/A N/A MISG      30.30R
OGDEN          SUNNY     61  34  36 CALM      30.27R
PROVO AIRPORT  SUNNY     61  36  39 CALM      30.28S
SALT LAKE CITY SUNNY     62  35  36 CALM      30.27R
VERNAL         SUNNY     64  30  27 NE7       30.25R
WENDOVER       SUNNY     64  28  25 E3        30.29R
HEBER CITY     SUNNY     54  36  50 CALM      30.32R
WEST JORDAN    SUNNY     63  28  27 NW13      30.29R

$$

UTZ012>022-026-027-281600-

SOUTHERN/CENTRAL UTAH

CITY           SKY/WX    TMP DP  RH WIND       PRES   REMARKS
BLANDING       SUNNY     74  33  21 SE7       30.26R
BRYCE CANYON   SUNNY     58  37  45 NE8       30.35R
CEDAR CITY     SUNNY     62  35  36 N7        30.25R
DELTA          SUNNY     65  30  26 N16       30.26R
HANKSVILLE     SUNNY     70  36  28 CALM      30.17R
MILFORD        SUNNY     65  30  27 N18       30.24R
MOAB/CYNLANDS  SUNNY     74  35  24 W3        30.14R
PRICE          SUNNY     69  25  19 NW10      30.23S
ST GEORGE      SUNNY     77  36  22 N6        30.06S
KANAB          SUNNY     72  39  30 N13       30.22R

$$

REGIONAL REPORTS     COLORADO/ARIZONA

CITY           SKY/WX    TMP DP  RH WIND       PRES   REMARKS
CRAIG, CO      SUNNY     58  36  43 CALM      30.31R
GRAND JUNCTION SUNNY     71  35  26 CALM      30.18R
RIFLE          SUNNY     64  37  36 N3        30.24R
MONTROSE       SUNNY     68  34  28 CALM      30.25R
CORTEZ         SUNNY     65  38  36 CALM      30.21R
PAGE, AZ       SUNNY     76  37  24 NW8       30.12R
GRAND CANYON   SUNNY     70  29  21 CALM      30.28R
KINGMAN        SUNNY     82  33  17 CALM      30.04R
FLAGSTAFF      MOSUNNY   67  39  35 CALM      30.31R

$$

REGIONAL REPORTS    NEVADA/IDAHO/WYOMING

CITY           SKY/WX    TMP DP  RH WIND       PRES   REMARKS
LAS VEGAS, NV  SUNNY     85  26  11 W5        29.92R
ELY            SUNNY     55  24  30 NE9       30.32R
ELKO           SUNNY     54  31  41 CALM      30.30S
POCATELLO, ID  SUNNY     53  43  68 NW6       30.33R
BURLEY         SUNNY     55  35  47 CALM      30.30R
EVANSTON, WY   SUNNY     50  29  44 SW7       30.36R
ROCK SPRINGS   SUNNY     55  25  31 W17       30.33R
KEMMERER       SUNNY     50  25  37 W12       30.36R

$$


USA.gov is the U.S. government's official web portal to all federal, state and local government web resources and services.